Wind_Speed
30 31 31 30 28 27 25 24 22 22 22 23 21 17 15 14 12 11 10 9 9 9 10 11 12 12 12 12 11 10 9 8 7 6 6 5 5 4 4 4 5 5 5 5 5 6 6 5 4 3 3 3 4 3 3 2 1 1 1 1 2 2 3 4 5 5 4 3 2 2 2 2 2 2 2 3 3 3 3 4 5 5 6 6 6
32 32 33 30 27 27 28 27 26 25 25 26 23 18 17 17 15 13 11 10 10 10 10 11 11 11 11 11 10 9 8 6 5 4 3 3 2 2 1 1 1 2 2 2 3 4 4 4 5 4 5 5 5 4 4 3 2 3 3 2 2 2 3 3 4 4 4 4 4 5 5 5 5 5 5 6 6 6 7 7 7 8 9 9 10
32 33 33 31 28 28 30 29 29 28 28 28 24 20 20 19 16 14 12 11 10 11 11 11 10 10 9 9 9 8 7 6 5 4 3 3 4 3 3 2 2 2 3 3 4 4 5 5 6 7 7 7 7 7 6 5 5 5 5 5 5 5 5 4 5 5 5 6 6 6 6 7 7 7 7 8 9 9 10 10 10 10 10 11 12
35 35 34 32 30 30 31 31 31 30 29 28 25 22 20 18 16 16 14 13 13 13 12 12 10 8 8 8 8 8 7 7 6 5 5 6 7 6 6 6 6 6 6 7 7 7 7 7 7 8 9 10 10 9 9 9 8 8 8 7 7 7 7 8 8 9 8 8 8 6 6 8 9 9 9 10 11 11 11 11 10 10 10 12 14
35 35 33 31 30 31 32 33 32 30 29 28 25 21 19 19 18 18 16 15 15 14 13 11 9 8 8 8 8 7 7 7 6 7 8 8 9 8 7 7 7 7 8 9 9 9 9 10 10 10 11 12 12 12 12 12 12 11 11 10 10 10 11 11 11 11 10 10 10 10 8 8 10 10 9 10 10 9 10 10 11 11 12 13 15
29 31 31 29 27 26 27 29 29 28 27 27 26 23 23 22 19 18 17 16 16 15 13 11 10 9 9 9 9 8 7 7 8 9 10 10 9 9 9 9 8 8 8 9 9 10 10 11 12 13 14 15 15 15 15 14 14 14 12 12 12 12 12 12 12 12 12 12 12 11 10 9 10 10 10 10 10 10 11 12 13 13 14 15 17
18 20 23 22 18 17 18 20 22 23 25 28 29 29 28 26 21 18 19 18 17 17 14 12 11 11 11 11 10 10 9 8 9 9 10 11 11 11 11 10 10 10 9 10 10 11 11 12 13 14 15 16 17 18 17 16 16 15 14 13 12 13 13 13 12 13 13 13 12 11 11 11 11 12 12 11 11 12 12 13 13 14 15 16 17
10 12 13 11 10 11 13 16 17 19 23 26 28 28 26 24 20 19 19 18 18 17 15 14 13 13 13 13 13 12 11 10 10 9 10 10 11 11 11 11 11 11 10 11 11 12 12 12 13 15 17 17 18 18 17 16 16 16 15 14 13 13 13 12 12 12 13 13 12 12 12 13 14 14 14 13 13 13 13 14 14 15 16 17 18
10 11 11 10 10 11 12 14 16 18 20 23 24 22 18 18 19 19 19 19 19 18 17 16 15 15 15 16 15 15 14 13 11 10 11 11 12 12 12 12 13 13 12 13 13 14 14 14 15 16 17 18 18 18 17 17 16 15 15 15 14 14 12 12 12 12 13 13 14 14 14 15 15 15 15 14 14 14 14 15 16 17 18 19 20
13 12 11 11 11 11 11 13 15 17 18 20 21 20 19 19 19 19 18 18 19 19 18 18 17 17 17 17 17 17 15 14 13 12 13 13 14 14 13 13 14 15 15 16 16 16 17 17 17 17 18 19 19 18 17 17 17 16 16 15 15 14 13 13 14 14 15 15 15 16 16 17 17 17 16 15 15 16 16 17 18 19 20 21 22
14 12 10 10 11 12 12 13 15 15 17 19 19 19 21 20 19 18 17 18 18 18 19 19 19 19 18 18 18 17 16 15 15 14 14 14 15 15 15 15 15 15 15 16 16 17 18 18 18 18 19 21 21 19 18 18 17 17 16 15 15 15 15 15 16 17 17 17 17 17 17 18 18 18 17 17 17 18 18 19 20 21 22 23 24
14 12 11 10 10 12 12 13 14 15 16 18 17 18 20 20 19 18 17 17 17 16 16 16 17 17 17 17 18 18 18 17 16 16 15 15 16 17 17 16 16 15 16 16 15 16 17 17 18 19 21 22 22 21 19 18 17 17 16 16 16 16 16 17 17 18 18 18 18 18 18 19 19 19 19 19 19 20 20 21 22 23 24 25 26
14 14 13 13 13 12 13 14 15 16 18 18 17 17 18 18 19 19 18 18 17 16 15 15 15 15 16 17 17 18 18 18 18 18 17 17 18 18 18 17 16 16 16 15 15 15 16 17 18 19 20 21 21 20 19 17 17 17 17 16 17 17 17 18 18 18 19 19 19 19 19 20 20 20 20 20 20 21 22 23 24 25 26 27 28
16 15 14 14 14 14 14 15 17 18 18 17 16 16 16 17 19 19 20 20 19 18 17 16 16 16 16 16 17 17 17 17 17 17 16 16 17 18 18 17 16 14 14 14 14 15 15 16 18 18 18 19 19 19 18 18 18 18 18 18 18 18 18 19 19 19 20 20 20 21 21 21 21 22 22 22 23 23 24 25 26 27 28 28 29
16 15 14 14 14 15 15 16 18 19 19 18 17 17 16 16 18 19 19 20 19 19 19 18 17 17 16 16 16 16 16 16 16 15 15 15 16 17 17 15 13 11 12 13 15 16 16 16 17 18 17 18 18 19 19 20 20 20 20 20 19 19 19 19 19 20 21 21 22 22 22 22 23 23 23 24 25 25 26 27 28 29 29 29 30
14 15 14 15 15 15 15 16 17 18 19 19 18 18 17 16 16 17 17 17 17 17 17 17 17 17 16 16 16 16 16 16 15 15 15 15 16 16 15 13 10 10 11 14 16 17 17 18 19 19 19 20 20 21 21 22 22 22 22 21 20 20 20 20 20 21 22 23 23 23 23 23 24 24 25 25 26 27 28 29 29 29 29 30 31
12 14 15 16 16 16 17 18 19 18 19 18 18 17 17 17 17 17 16 16 16 16 16 16 16 16 16 16 16 16 16 15 15 15 15 15 15 15 14 12 11 11 13 15 17 18 19 20 21 21 22 23 23 23 23 23 23 23 22 22 22 22 22 22 22 23 23 24 24 24 24 25 25 26 26 27 27 28 28 29 29 29 31 32 33
11 12 13 14 14 15 17 19 18 19 20 21 21 20 21 21 20 19 18 17 16 16 16 16 16 17 17 17 17 16 16 16 15 15 15 15 15 15 14 13 13 14 15 17 18 20 21 22 23 23 24 24 24 25 25 25 24 24 23 23 23 23 23 23 23 23 24 25 25 25 26 26 27 27 27 27 28 28 28 29 30 31 32 33 34
13 13 13 13 13 14 16 17 18 19 21 22 23 22 22 22 21 20 19 18 18 18 18 18 18 18 19 19 19 18 18 17 16 16 16 16 16 16 16 16 16 17 18 19 20 22 23 23 24 24 25 25 26 26 25 25 24 24 23 23 24 24 24 24 24 24 24 25 25 26 26 27 27 27 27 27 28 28 29 30 31 32 33 35 36
13 13 13 14 14 15 16 17 18 18 19 21 21 20 20 19 20 20 20 19 20 20 19 19 20 20 21 20 20 20 20 19 18 17 17 17 18 19 19 19 19 19 20 21 22 23 24 24 24 25 25 26 26 26 25 24 24 23 23 23 24 24 24 24 23 24 24 25 26 27 27 27 27 27 27 27 27 28 29 30 32 34 36 37 38
11 12 12 12 13 13 14 16 17 18 19 19 20 20 20 20 20 20 19 20 21 20 20 20 21 22 22 22 22 21 21 20 19 18 18 19 20 21 22 21 21 21 21 22 23 24 25 25 24 24 25 25 25 24 24 23 23 23 23 24 23 23 22 22 22 23 25 26 27 27 27 27 27 27 27 27 28 28 30 32 34 37 38 39 40
16 16 16 16 16 16 17 17 18 19 20 21 21 21 21 20 20 20 21 22 22 22 22 23 23 23 24 25 24 23 22 22 21 20 20 21 22 23 23 23 23 22 22 23 23 24 24 24 24 24 25 24 24 24 24 23 23 23 23 23 23 23 23 24 25 26 26 27 27 26 26 26 26 26 26 27 28 30 32 35 37 38 39 40 41
21 21 21 21 21 21 22 22 22 22 22 22 23 23 23 23 23 24 25 25 24 24 24 25 26 26 26 26 26 25 24 24 24 23 22 23 23 24 24 25 25 23 23 23 24 25 26 26 26 26 26 25 25 24 24 24 24 24 24 25 26 26 26 26 25 25 25 25 25 25 25 25 25 25 26 28 30 32 35 36 38 38 39 40 40
22 23 24 25 25 26 26 26 26 26 26 25 26 27 28 28 28 28 28 28 28 28 28 28 29 29 29 29 28 27 27 28 28 27 27 26 26 25 26 26 26 25 24 24 25 27 28 28 29 29 29 28 27 27 26 25 25 25 26 27 27 26 25 24 23 23 23 23 23 23 24 25 26 27 28 30 32 34 36 37 38 38 38 39 39
22 23 24 25 27 28 30 30 32 33 33 32 32 32 31 30 29 30 31 31 31 31 31 31 32 32 32 32 31 30 30 29 30 31 31 29 28 27 27 27 27 27 27 27 28 29 30 31 32 32 32 31 30 29 29 28 28 28 27 26 25 24 23 23 22 22 22 22 22 23 24 25 27 29 30 32 34 35 37 37 37 36 37 37 38
25 26 26 27 28 29 31 32 33 34 34 34 33 33 32 32 32 33 35 36 35 35 34 34 34 35 34 34 33 33 31 32 34 35 34 31 29 28 29 30 31 31 30 30 30 31 32 33 33 33 32 31 31 30 30 30 29 28 27 25 24 22 22 22 22 22 22 22 23 24 25 26 28 29 31 33 35 36 36 36 35 35 36 36 36
28 29 29 30 32 33 34 34 34 34 34 33 33 33 34 34 35 36 37 38 39 39 39 38 39 39 38 37 37 35 33 33 35 35 33 31 30 31 33 33 33 34 34 33 32 33 35 35 33 33 32 31 30 30 29 28 27 26 25 25 23 22 22 22 23 23 23 23 23 24 26 27 28 30 32 34 35 35 34 34 34 34 34 35 35
29 30 31 32 33 35 36 37 38 38 38 38 38 38 38 38 39 39 39 40 40 40 41 41 40 40 39 39 39 37 35 34 34 34 33 33 34 37 40 39 38 39 39 37 35 36 38 38 36 34 33 30 29 29 28 25 24 25 25 24 23 22 21 22 22 22 22 23 23 25 26 27 29 30 32 33 33 33 33 33 33 34 34 34 33
26 27 28 30 31 33 35 36 38 39 40 41 42 43 43 43 43 43 43 43 44 43 43 43 42 42 41 41 40 40 39 38 36 37 37 37 38 40 41 40 41 43 41 39 39 40 41 41 39 37 36 33 31 29 27 25 25 25 23 22 20 20 20 20 20 21 21 22 23 25 26 27 28 29 30 31 31 31 31 32 33 34 34 33 33
21 22 23 24 25 27 29 30 32 33 35 37 39 41 42 44 45 45 45 45 46 46 45 45 44 44 44 44 43 43 42 41 40 40 41 41 41 42 41 39 38 38 34 31 34 37 37 38 39 41 41 38 33 30 29 27 24 22 20 19 19 18 18 19 19 20 21 22 23 24 25 26 26 27 28 29 29 29 30 31 32 33 33 32 31
18 19 20 21 21 23 24 26 27 28 30 32 34 36 37 39 41 43 44 44 45 45 45 44 43 42 43 44 43 43 43 43 43 42 42 42 42 43 43 41 39 37 33 28 27 28 28 30 34 38 40 37 32 30 31 28 23 20 18 17 17 16 16 17 19 20 21 21 22 23 24 24 24 25 26 27 27 28 29 31 32 31 31 30 30
16 16 17 18 19 20 21 23 25 27 28 30 32 34 36 36 37 39 41 42 43 43 43 43 42 41 41 42 43 43 43 44 44 43 43 43 43 43 43 42 41 39 35 30 28 28 27 27 27 30 32 32 30 31 31 28 23 20 18 16 14 15 16 18 20 20 20 21 22 22 21 21 22 23 24 25 26 27 28 29 29 29 28 28 29
14 15 16 17 18 19 21 23 25 27 29 31 32 34 35 36 37 38 39 40 41 42 43 42 41 40 39 40 41 43 44 44 45 45 44 45 45 44 43 42 41 39 36 35 34 33 31 29 29 28 29 29 30 31 32 28 22 19 16 14 14 16 17 19 20 19 20 21 21 21 21 21 21 22 23 24 25 26 27 27 26 26 27 27 27
14 14 15 16 18 19 21 22 24 25 27 28 30 31 32 33 34 35 36 36 36 38 40 41 40 39 38 38 39 40 42 44 45 45 45 46 46 44 42 40 40 40 39 39 38 36 34 33 33 32 31 30 30 33 34 28 20 16 14 15 16 18 19 19 19 19 21 22 22 22 22 21 21 22 22 23 24 25 25 25 25 25 26 26 25
12 13 14 15 16 17 18 19 19 19 20 22 23 24 24 25 26 27 29 29 29 30 33 36 38 37 36 36 36 37 38 40 41 41 42 43 44 43 41 40 40 39 38 38 37 37 36 33 32 32 32 32 33 34 30 21 15 15 15 16 17 19 19 19 19 21 22 21 22 22 22 22 21 21 21 22 23 24 24 24 24 24 24 23 23
10 11 11 12 13 14 14 15 14 14 15 15 16 16 17 17 18 19 20 21 22 22 23 27 31 33 34 34 34 34 35 35 36 36 36 36 36 36 36 35 35 34 34 34 33 33 33 33 34 34 33 33 32 29 21 15 15 16 17 18 19 19 19 19 21 22 21 20 21 22 21 21 20 19 20 21 22 22 22 22 22 22 22 21 21
8 8 10 10 11 11 11 11 11 11 11 12 13 14 15 16 17 17 18 18 19 19 19 20 22 25 27 29 30 31 32 33 34 34 34 33 33 32 30 29 29 29 30 30 33 36 37 36 36 34 30 27 26 22 17 15 17 19 19 20 20 19 19 21 22 21 18 18 20 20 20 19 19 18 19 20 21 21 21 21 20 20 20 19 19
7 7 7 8 8 8 8 9 10 11 13 14 15 16 17 18 19 19 20 20 20 20 19 19 19 20 21 22 23 24 26 28 30 32 32 31 30 30 28 26 25 27 27 26 27 31 33 30 27 25 22 20 19 17 16 17 19 20 20 20 19 18 20 22 22 19 17 18 19 19 19 18 18 17 18 19 20 20 19 18 17 17 17 18 18
6 5 5 5 6 7 8 10 11 13 15 16 17 17 17 19 20 22 22 22 22 22 21 19 19 19 19 19 20 20 20 22 24 26 28 29 28 27 26 24 23 25 26 24 20 18 18 16 15 15 14 14 15 16 16 18 19 19 18 17 17 18 20 20 19 18 19 19 19 19 19 18 17 17 18 18 18 18 17 16 15 15 15 16 17
4 3 4 5 7 8 10 11 12 14 15 15 17 18 19 21 23 24 24 23 22 21 20 19 19 18 19 19 20 21 21 20 20 20 23 27 30 29 26 24 24 24 22 20 16 13 11 11 13 13 11 12 15 17 16 16 16 16 15 16 18 19 19 19 19 20 20 19 19 19 19 17 16 16 16 16 15 15 14 13 13 14 14 14 15
3 3 4 6 9 10 11 12 13 14 15 16 18 21 23 25 26 25 24 22 19 18 18 18 18 18 18 19 20 21 21 20 20 18 17 18 23 26 25 22 21 19 16 12 11 9 8 11 14 15 14 14 16 18 17 17 16 15 15 17 19 18 18 19 20 20 19 18 19 20 18 16 14 14 13 13 12 12 12 11 11 12 12 13 14
4 5 6 8 9 10 11 12 13 14 17 19 21 23 25 26 26 23 20 17 15 15 16 16 16 16 16 17 18 18 18 17 18 17 13 10 11 15 16 15 14 12 10 8 8 8 9 12 14 16 16 16 16 17 18 19 19 18 18 20 20 20 20 21 21 20 19 19 20 20 17 14 13 12 11 10 10 10 10 9 9 10 11 11 12
6 6 7 7 8 10 11 12 13 16 19 20 22 23 24 23 23 21 17 13 12 13 14 14 13 13 13 13 14 15 16 17 17 17 15 13 11 11 12 11 9 8 8 8 9 10 11 12 13 14 16 16 16 16 18 20 21 22 23 24 23 23 22 20 19 19 19 19 19 18 15 13 11 10 10 9 8 8 8 8 8 10 10 11 12
5 5 6 7 8 9 10 12 15 17 18 19 21 22 20 18 19 18 14 10 10 12 13 11 9 9 7 7 10 11 11 13 16 17 16 15 14 14 15 13 10 9 9 10 11 12 13 13 14 14 14 15 15 17 19 20 22 24 25 25 24 21 19 17 17 18 19 19 18 16 14 12 11 10 9 9 8 8 8 7 8 9 10 11 12
5 5 6 7 8 9 10 13 16 17 17 18 19 20 16 14 15 15 13 12 11 11 11 11 10 9 6 3 10 13 10 8 10 14 16 14 13 14 16 16 13 12 11 11 12 12 12 12 12 12 13 14 16 19 21 22 24 25 24 22 20 17 16 16 17 18 18 17 16 14 13 11 10 9 9 9 9 8 8 7 8 9 9 10 12
5 6 7 8 8 8 9 12 15 16 16 16 18 17 13 10 11 14 14 15 14 13 12 12 11 10 9 5 3 10 13 12 10 12 14 14 12 11 12 13 13 12 12 11 11 11 11 11 11 12 14 17 19 21 22 22 22 20 19 18 17 16 16 17 17 16 15 15 14 12 11 10 9 9 9 9 9 8 8 8 8 9 9 10 11
6 7 7 8 9 8 9 10 12 13 14 16 17 15 11 8 9 13 14 15 15 13 12 12 11 10 10 9 7 4 3 8 10 11 12 12 12 11 11 12 12 11 11 11 10 10 10 10 11 12 14 15 17 18 18 17 16 16 16 16 16 16 16 15 14 14 14 14 12 11 10 9 9 9 9 9 8 8 8 8 8 9 9 9 10
6 7 8 9 9 8 7 7 9 12 14 15 16 15 12 10 9 12 14 14 13 11 10 11 11 11 10 10 9 10 9 5 2 0 2 5 8 10 10 9 9 8 7 7 6 5 5 5 5 5 6 8 10 11 12 13 14 15 16 16 15 14 13 13 13 13 13 12 10 9 8 8 8 8 9 8 8 8 8 8 8 9 9 9 10
7 7 7 7 6 5 4 5 8 10 13 14 15 15 15 13 11 11 13 15 13 10 9 9 10 11 11 11 11 10 10 9 8 8 8 6 5 5 5 4 4 4 3 3 3 4 5 7 7 6 6 8 9 10 11 12 13 12 12 12 12 12 12 12 12 12 11 9 8 8 7 8 8 8 8 8 8 8 8 9 9 8 9 9 10
5 4 5 5 4 4 4 6 7 9 11 13 15 15 15 14 13 12 12 13 14 12 10 8 8 8 8 9 10 10 9 9 8 7 5 4 3 3 3 3 3 4 6 7 8 9 10 11 11 11 11 12 11 11 10 9 9 8 9 9 10 10 11 11 10 9 8 8 7 7 8 8 8 8 8 9 9 8 9 10 9 9 8 9 10
3 4 5 5 5 4 5 6 7 8 9 11 13 14 14 13 13 13 12 12 13 13 12 10 9 7 6 5 5 6 7 8 8 7 5 4 4 4 5 6 7 9 10 11 12 12 13 13 13 13 13 11 10 8 7 7 7 7 8 8 8 8 9 8 8 7 7 7 8 8 9 9 9 9 10 10 10 10 10 11 10 10 9 9 10
Wind_Direction
220 224 225 221 215 214 219 222 222 218 210 204 200 190 177 172 166 159 154 147 146 156 167 168 162 158 155 152 151 151 152 154 153 153 152 154 158 157 153 146 141 146 149 145 138 132 129 128 132 146 173 202 210 212 205 202 256 247 199 136 120 123 130 135 142 157 175 179 169 162 176 194 196 207 245 265 266 265 264 270 274 277 280 277 269
223 227 231 229 219 213 218 220 218 216 210 204 196 180 174 176 170 163 160 152 150 160 171 173 171 169 167 165 163 161 161 167 174 180 183 196 209 204 172 118 114 151 175 171 164 165 167 172 180 186 197 212 220 223 209 192 206 223 213 205 213 210 197 184 181 186 195 204 200 199 215 233 236 227 233 246 256 262 263 266 271 275 278 275 267
227 229 230 231 224 217 216 217 216 214 209 205 195 180 179 182 174 170 171 164 162 170 175 178 179 180 181 183 183 184 190 202 215 216 219 240 247 247 244 237 232 228 232 229 209 201 206 213 218 217 219 224 227 231 230 219 215 222 228 238 241 240 238 240 239 234 230 230 226 217 216 228 240 240 238 242 248 256 263 268 271 271 270 265 260
228 231 229 226 224 221 218 218 216 210 204 201 194 184 186 186 179 181 183 180 179 180 181 181 183 190 199 207 211 216 223 231 246 251 245 248 249 245 239 231 228 228 228 232 233 230 227 229 235 238 239 239 236 236 237 233 230 229 229 235 242 248 252 254 255 256 256 253 252 247 232 230 241 247 247 249 251 254 257 263 266 264 258 254 252
230 232 232 229 227 225 222 219 216 209 202 197 193 189 183 181 187 192 190 188 189 189 189 188 189 201 214 222 228 234 239 242 252 258 255 256 257 258 256 249 241 236 233 234 238 241 242 243 245 245 244 245 242 240 239 237 235 231 226 231 240 246 247 246 248 253 257 257 260 263 256 246 248 253 254 256 260 257 254 258 263 263 260 258 257
231 232 234 234 230 229 229 224 220 216 207 200 202 200 189 189 203 204 195 195 198 198 200 201 206 218 225 230 235 240 244 246 250 253 251 249 251 255 259 257 251 244 238 237 238 243 250 254 254 250 245 242 241 238 235 234 235 235 236 240 243 242 240 238 239 244 248 251 255 261 262 256 254 256 258 261 265 264 261 260 262 263 265 265 266
220 228 235 236 226 222 227 223 219 216 209 205 211 216 217 220 221 205 195 203 208 207 212 216 221 231 235 238 243 246 250 253 251 246 238 237 243 248 250 252 253 251 247 243 242 245 249 252 254 252 245 240 238 237 235 232 234 240 246 246 241 235 232 233 234 236 240 245 251 257 262 264 264 265 267 269 269 271 272 272 271 272 275 276 279
198 210 219 218 202 197 203 205 208 212 212 214 220 227 231 227 213 199 201 210 213 216 221 225 229 236 240 244 249 250 253 255 250 235 224 229 240 248 251 253 255 254 252 253 255 253 251 249 248 248 244 237 233 234 234 230 230 235 239 237 235 235 236 238 239 238 241 247 254 258 261 265 269 273 275 276 276 277 279 281 283 283 284 286 289
184 190 189 183 182 184 185 187 195 203 209 218 223 222 213 199 197 207 214 215 217 222 225 229 234 239 243 247 249 250 251 251 248 240 235 235 239 243 248 253 255 255 256 260 262 259 255 252 250 248 242 232 226 226 227 225 223 224 226 227 231 236 240 245 250 255 259 263 267 267 267 269 272 275 278 278 278 278 278 280 282 283 284 286 288
184 188 187 188 195 196 192 189 189 193 199 206 208 205 197 193 201 211 214 214 219 224 227 230 234 237 240 243 244 246 246 243 242 246 246 242 239 243 249 253 255 257 259 261 263 261 257 253 250 247 238 224 218 220 223 222 221 221 223 228 232 237 242 248 254 259 263 265 266 267 270 273 275 276 277 277 276 275 276 278 280 283 285 286 288
188 191 193 200 205 202 198 195 192 193 197 198 198 200 201 202 205 211 213 215 217 223 228 231 232 233 234 236 239 241 239 238 242 247 247 243 243 247 254 258 259 258 259 261 262 260 257 252 246 240 230 220 217 219 222 224 224 224 226 229 234 241 248 254 258 260 261 260 260 263 268 272 274 274 274 274 274 275 277 280 283 286 288 288 288
189 191 195 198 200 199 197 195 194 193 195 197 196 198 203 207 210 214 217 218 219 224 230 233 234 235 235 235 237 237 236 239 244 248 248 249 251 255 258 260 260 259 261 261 257 254 251 246 238 231 223 218 218 220 223 225 226 227 229 232 240 249 256 261 264 265 264 263 263 266 269 271 271 271 271 273 275 278 282 285 287 289 289 290 290
185 186 189 189 188 192 194 194 195 193 192 194 195 197 204 208 210 212 216 221 224 226 230 234 237 238 239 238 237 238 240 244 247 249 250 252 255 257 259 259 259 259 260 258 251 248 246 239 232 227 222 220 221 222 225 226 225 228 234 241 250 257 262 266 267 267 266 265 265 268 271 272 272 273 274 277 280 283 287 290 291 291 291 292 294
178 182 186 187 185 186 185 186 188 189 189 191 194 199 204 206 209 213 218 223 227 228 231 234 236 240 242 242 241 242 244 247 249 249 248 248 250 252 254 257 258 258 256 254 249 245 243 237 230 226 223 221 222 223 224 225 228 235 243 250 256 260 263 265 266 266 265 265 266 269 272 273 274 275 278 282 285 288 291 294 294 294 294 296 297
186 185 185 184 185 186 186 185 185 186 189 193 194 198 202 206 212 215 219 223 226 229 232 235 239 242 243 243 242 243 243 244 244 243 242 243 246 249 252 255 258 256 249 245 243 239 237 233 229 227 225 224 225 226 228 232 238 244 250 254 257 261 263 264 265 265 266 267 269 272 274 275 276 279 282 285 289 292 294 294 294 294 295 297 297
202 197 190 184 183 185 186 186 188 191 194 196 197 199 201 205 211 215 219 223 227 231 235 238 241 242 243 243 242 241 241 241 240 241 243 244 246 248 249 250 254 255 246 239 237 234 230 228 227 228 228 228 229 231 234 239 243 248 252 256 259 262 264 265 266 267 268 270 272 274 276 279 281 283 286 289 291 292 293 293 293 293 294 294 294
201 201 197 193 192 193 193 190 191 196 199 200 201 202 201 203 208 213 219 225 229 232 235 237 241 243 245 244 241 239 240 240 242 243 245 246 247 247 246 245 248 250 245 240 238 236 232 230 232 232 232 233 235 237 240 243 246 249 252 256 259 262 263 265 267 268 270 272 274 277 279 281 283 285 288 290 290 291 291 290 290 291 291 291 292
188 191 193 197 200 203 202 199 201 206 208 209 208 204 200 200 204 209 216 222 227 230 234 237 242 245 246 244 241 241 240 239 241 243 245 249 250 249 247 245 245 247 247 244 241 239 237 236 237 238 239 241 243 244 245 246 247 249 251 254 257 259 261 262 263 265 268 271 274 277 279 281 283 285 287 288 288 288 288 288 289 289 290 291 292
212 212 210 214 217 214 212 214 218 219 217 216 214 213 210 208 207 209 213 218 222 226 231 235 238 240 239 239 239 239 238 237 239 243 248 252 255 255 254 250 248 249 250 249 246 243 241 241 241 242 243 245 247 249 250 251 251 253 254 255 257 259 260 262 264 267 270 274 277 279 281 282 284 284 285 286 286 287 287 288 290 290 291 292 293
228 231 228 223 220 218 217 220 222 220 216 215 216 219 220 219 216 213 212 215 222 227 231 233 235 236 237 237 238 237 236 237 241 245 248 252 255 256 256 254 252 251 251 250 249 246 245 245 246 247 247 248 251 253 255 256 257 259 260 260 261 261 262 264 267 270 274 277 279 281 283 283 284 284 285 285 285 287 288 289 290 291 292 292 292
236 242 243 238 232 228 223 221 222 222 224 226 228 231 237 239 237 233 228 224 225 230 233 234 234 236 239 242 242 242 241 242 244 247 250 254 255 255 255 254 253 252 252 252 251 249 249 250 251 252 252 253 254 256 257 258 260 261 263 264 265 265 267 270 273 276 278 279 280 281 281 281 282 283 284 285 286 288 289 289 290 292 292 291 289
238 239 240 241 243 243 241 238 238 239 242 246 247 250 253 251 247 250 251 245 239 237 238 238 239 239 242 244 245 246 246 245 245 249 254 257 256 254 253 252 251 251 253 254 254 254 255 254 253 253 253 254 255 256 257 259 261 263 265 266 269 272 276 279 280 280 280 279 278 279 280 282 283 283 284 285 286 288 289 290 292 292 290 289 288
242 242 242 241 241 242 243 244 245 245 244 243 247 253 255 251 250 255 258 255 251 249 246 245 245 243 241 242 244 247 248 248 249 251 254 255 255 254 253 252 252 252 252 254 256 256 256 256 255 254 254 254 255 256 257 260 262 264 267 270 274 278 279 279 278 277 276 277 279 281 283 284 285 285 285 286 287 288 290 290 290 289 288 288 288
245 246 246 245 244 243 244 244 246 247 244 240 244 251 253 251 255 258 256 253 252 250 250 249 248 245 242 241 242 245 248 251 253 252 251 251 253 253 252 252 253 252 252 253 254 255 256 256 255 254 254 255 256 258 260 262 264 267 271 274 276 277 276 275 275 277 279 281 284 286 287 287 288 289 289 289 289 289 289 288 287 287 288 289 290
246 247 247 247 246 246 247 248 250 252 253 251 253 255 253 252 255 255 253 252 251 248 249 250 250 249 248 246 247 248 248 250 251 249 249 251 253 253 253 254 255 255 254 253 253 254 255 255 254 253 253 254 256 259 262 264 267 269 272 272 272 272 273 276 279 282 284 287 288 289 290 291 291 291 291 290 289 288 287 287 288 289 291 293 295
247 248 248 249 249 249 251 252 253 255 258 259 259 259 255 252 251 249 248 250 251 249 248 248 248 249 249 249 251 251 250 251 249 244 243 247 251 252 253 254 255 255 254 252 250 250 251 251 251 251 251 251 253 255 257 261 264 267 267 265 266 270 276 281 284 287 290 291 292 293 294 293 293 292 291 290 288 288 288 290 291 293 295 297 299
249 249 249 249 250 250 251 253 255 256 258 260 260 260 258 255 252 249 248 249 250 250 249 248 248 248 250 253 256 256 254 254 251 245 244 249 255 256 254 252 253 254 252 249 248 248 249 248 247 247 249 249 249 250 252 255 257 258 258 259 265 273 281 286 289 292 293 294 294 295 295 295 294 293 291 290 289 289 291 292 293 295 297 299 300
253 253 252 251 252 252 252 252 253 254 256 257 257 257 258 257 257 256 255 254 254 254 254 254 253 251 250 252 254 255 254 255 253 251 252 257 263 262 256 251 249 249 247 243 242 244 246 245 244 245 245 242 240 243 246 247 247 249 251 257 268 279 286 291 293 295 295 295 295 296 296 296 294 292 291 291 291 292 293 294 296 298 301 302 301
258 258 257 257 257 257 257 257 257 257 257 257 257 257 258 258 260 261 261 261 260 260 260 260 260 259 258 256 256 256 257 256 254 254 256 259 263 264 259 252 247 245 244 241 238 238 239 240 241 243 242 239 239 241 241 239 240 245 251 261 274 284 290 294 295 294 293 293 295 296 296 295 294 293 293 293 294 294 296 298 300 303 304 303 303
262 263 263 262 263 263 264 264 264 264 263 263 262 261 260 260 261 262 263 263 263 263 263 263 262 262 262 261 260 259 258 257 255 255 257 258 259 261 261 259 253 251 252 250 242 239 241 242 243 244 242 239 238 239 236 235 239 247 256 268 279 287 292 293 291 288 287 289 293 295 296 296 296 296 295 295 296 298 300 302 304 304 303 303 302
267 268 268 268 269 270 270 271 272 272 271 270 269 268 266 265 264 264 264 264 263 263 264 263 262 261 260 259 258 258 258 257 255 254 255 255 255 256 258 258 256 257 262 263 254 251 253 253 251 250 245 241 241 244 241 239 242 252 262 271 282 290 293 289 282 280 283 288 292 294 296 298 299 298 298 298 300 301 302 303 302 302 302 302 303
270 270 271 273 274 274 276 277 277 277 277 276 274 273 271 269 267 266 266 265 264 263 262 261 261 260 258 257 255 255 255 255 255 254 253 254 255 254 255 256 257 259 264 267 266 265 266 266 264 262 257 254 259 260 253 246 249 259 265 273 285 293 290 281 276 277 283 289 292 293 295 296 296 297 298 299 300 301 301 300 300 301 302 304 305
280 280 281 283 284 285 286 286 286 285 284 282 279 277 275 272 269 267 265 265 265 265 264 262 260 258 256 255 254 253 252 252 253 253 253 253 254 256 256 258 260 262 266 268 269 271 270 268 268 269 267 267 268 260 249 245 252 261 266 276 286 287 280 272 271 276 284 290 291 292 292 292 293 296 299 299 300 301 300 300 301 302 303 304 304
285 286 287 286 287 288 289 289 290 290 289 287 284 281 278 276 274 272 270 267 265 264 265 264 263 259 256 253 252 252 251 250 251 252 252 252 255 257 259 260 260 262 264 266 268 270 269 268 268 267 265 267 265 252 242 243 255 263 266 275 279 275 269 267 270 278 285 288 289 289 289 290 294 298 300 302 302 302 301 301 302 302 302 303 305
284 285 286 286 289 291 293 296 298 300 300 298 294 291 288 285 283 282 280 277 274 269 265 263 262 260 257 253 250 250 251 251 251 251 251 253 254 256 258 260 261 262 264 265 266 266 264 262 260 259 259 261 258 248 240 242 254 260 264 269 269 266 265 267 272 279 284 286 288 288 290 293 297 300 302 303 302 300 300 300 300 300 301 304 307
286 289 290 293 299 302 305 308 311 315 317 315 313 311 309 305 303 300 297 294 291 285 276 268 263 260 258 254 250 248 248 250 251 251 251 253 254 256 257 259 261 262 262 262 261 260 258 255 253 253 255 256 251 243 239 242 247 249 252 255 256 259 264 267 272 278 283 285 286 288 292 296 299 301 303 302 299 297 297 297 298 299 302 306 310
299 300 299 304 310 313 316 320 323 327 330 331 330 329 326 322 318 314 309 306 301 296 291 284 275 267 262 257 253 249 247 247 248 249 251 252 255 258 259 260 261 259 258 259 258 253 246 243 243 244 243 240 236 234 234 237 239 243 249 254 258 264 268 270 274 280 283 281 282 287 294 298 299 300 300 298 297 296 295 295 297 300 303 308 312
309 305 304 309 314 318 324 330 334 336 336 334 331 327 323 320 318 314 310 306 301 296 293 290 287 280 271 262 257 253 250 248 248 249 250 251 253 254 253 255 258 255 253 258 258 245 235 232 234 234 231 229 230 233 237 240 246 253 259 264 269 272 272 273 277 279 275 274 281 291 296 295 294 296 296 295 294 294 293 294 297 300 305 310 315
305 299 305 314 323 331 337 340 340 338 334 328 323 319 318 317 316 314 311 307 300 295 291 287 285 282 275 266 259 256 257 258 255 250 247 247 248 246 245 248 254 253 250 252 252 245 242 245 241 230 226 232 237 239 240 246 254 262 266 269 272 273 272 274 274 269 266 272 284 293 293 289 288 290 290 290 289 290 291 295 298 301 307 314 317
293 296 317 327 330 334 337 338 335 330 325 321 319 319 319 320 318 316 313 309 303 297 291 286 281 277 272 266 260 256 259 262 258 251 249 249 247 245 244 246 245 241 239 241 246 253 257 244 224 221 234 247 244 239 241 251 259 264 267 271 274 275 274 272 266 262 265 276 287 290 287 283 282 283 283 283 284 287 291 295 298 303 312 318 319
298 312 322 325 327 330 332 331 327 324 324 325 326 326 325 324 322 320 317 313 309 303 296 291 285 277 270 263 258 257 259 262 261 260 260 254 245 239 236 233 227 220 217 224 238 245 233 218 222 236 250 249 238 237 248 261 263 260 265 274 278 276 271 266 262 263 270 281 289 287 282 278 277 277 277 277 281 288 293 297 301 310 317 321 323
309 316 319 323 325 324 324 325 326 329 332 331 329 330 331 329 327 327 325 320 314 308 302 297 291 283 274 265 260 256 253 255 261 262 252 234 220 214 210 208 208 207 209 221 234 237 231 226 231 240 243 239 236 238 249 257 257 256 263 273 274 270 263 260 261 267 274 282 286 283 277 274 273 272 272 274 280 289 295 302 313 319 322 328 333
312 314 319 325 323 318 323 331 335 336 334 330 329 333 336 335 334 336 336 332 322 315 312 307 298 289 282 271 265 262 253 247 249 250 244 239 232 212 198 202 212 215 220 234 241 242 241 236 234 235 238 239 240 241 246 253 256 258 264 271 273 272 268 264 265 271 276 280 281 277 272 271 270 268 269 273 279 289 299 311 325 329 332 338 342
322 318 318 325 325 325 334 342 341 336 332 330 332 338 341 342 344 347 349 349 339 330 331 332 322 306 288 250 242 257 262 250 241 239 240 248 251 236 225 228 234 226 225 232 236 238 240 240 238 239 240 241 245 249 252 255 258 260 265 271 274 273 268 264 267 272 275 276 274 270 266 266 266 265 268 273 280 292 305 319 332 337 340 344 345
339 332 327 330 334 339 345 345 339 335 334 335 339 343 347 352 356 0 7 13 9 360 359 3 359 348 339 241 216 222 227 226 233 239 241 247 254 247 235 231 230 225 224 228 231 234 237 238 240 243 241 241 245 249 251 253 255 259 263 265 264 260 259 263 268 271 271 269 266 262 261 262 262 263 268 274 282 293 305 319 330 337 343 347 346
340 337 335 335 336 340 346 344 337 336 340 345 347 349 354 2 7 11 17 22 22 21 20 21 22 21 19 19 216 217 221 226 240 251 250 248 249 243 227 218 218 221 224 225 228 232 233 233 237 243 242 239 241 244 247 250 252 252 252 252 253 257 263 266 267 266 265 262 259 257 258 260 260 264 270 276 283 292 302 314 324 331 340 347 348
328 330 330 330 331 336 345 347 342 343 350 356 356 358 4 13 12 9 11 16 22 29 32 31 37 48 49 49 63 95 188 229 242 251 251 245 238 230 219 212 212 218 223 226 228 230 233 235 238 241 243 242 241 240 238 237 236 238 244 251 259 263 264 262 260 260 259 257 256 256 258 260 263 268 273 277 284 292 299 308 318 323 333 343 344
321 323 323 324 327 334 348 358 356 355 359 3 5 9 16 20 14 7 5 8 18 38 51 47 47 57 64 66 74 81 81 82 85 251 212 200 198 199 199 200 202 207 212 217 216 219 233 245 243 234 233 234 232 230 229 232 237 245 252 256 258 258 255 254 254 255 254 255 257 259 261 264 268 272 274 278 284 291 296 304 312 317 325 334 336
322 326 329 332 338 350 12 21 15 8 6 8 12 17 21 23 22 17 11 10 19 40 60 58 53 58 67 74 81 88 92 90 83 74 74 92 124 146 154 159 164 167 178 204 224 243 267 280 277 262 247 241 242 246 250 251 250 250 249 247 246 246 246 248 250 251 251 255 258 260 264 269 271 273 276 280 285 290 296 302 306 311 319 324 326
334 349 1 14 30 45 48 38 28 19 15 14 17 21 23 24 26 26 22 21 26 38 51 57 59 64 72 76 81 89 101 108 107 100 99 114 140 160 179 199 216 230 241 247 249 253 260 264 260 251 247 248 251 253 252 247 239 234 234 235 236 239 242 245 247 247 249 252 255 260 266 271 274 277 281 283 285 288 293 296 299 304 312 315 317
34 48 48 49 53 57 54 47 39 30 26 23 23 24 25 25 26 27 27 27 31 37 42 47 57 75 95 103 99 98 105 111 113 114 121 144 169 188 206 222 231 237 242 244 244 243 244 242 237 233 235 239 240 237 231 226 223 224 228 231 233 237 241 243 245 248 252 255 260 266 270 274 277 278 279 281 283 286 288 291 295 300 304 306 309
Height
3118 3119 3120 3122 3126 3130 3131 3133 3134 3136 3137 3138 3139 3140 3141 3142 3143 3143 3144 3144 3144 3144 3145 3145 3145 3146 3147 3147 3147 3148 3148 3148 3148 3148 3149 3149 3149 3150 3150 3151 3151 3151 3151 3151 3152 3152 3152 3152 3152 3152 3152 3152 3153 3153 3154 3154 3154 3154 3154 3155 3155 3155 3156 3157 3158 3158 3159 3159 3158 3158 3158 3158 3158 3158 3157 3157 3157 3157 3157 3157 3157 3157 3157 3156 3156
3117 3119 3120 3123 3126 3128 3129 3130 3131 3133 3135 3135 3137 3139 3141 3141 3142 3142 3144 3144 3144 3144 3144 3145 3145 3146 3146 3147 3147 3148 3148 3148 3148 3149 3149 3150 3150 3150 3151 3151 3151 3151 3151 3151 3152 3152 3151 3152 3152 3152 3153 3153 3153 3153 3154 3154 3154 3154 3154 3154 3155 3156 3156 3157 3157 3158 3159 3159 3159 3159 3158 3158 3157 3157 3157 3157 3157 3156 3156 3156 3156 3156 3156 3156 3155
3116 3117 3118 3121 3124 3126 3126 3127 3128 3130 3132 3133 3136 3138 3139 3139 3140 3141 3142 3143 3143 3143 3144 3144 3145 3146 3147 3147 3148 3148 3148 3148 3148 3149 3150 3150 3150 3150 3150 3151 3151 3151 3151 3151 3151 3151 3151 3151 3151 3152 3153 3153 3153 3153 3153 3154 3154 3154 3154 3154 3155 3155 3156 3157 3157 3157 3158 3158 3158 3158 3158 3157 3157 3157 3157 3156 3156 3156 3155 3155 3155 3155 3155 3154 3154
3114 3113 3114 3118 3121 3122 3123 3124 3125 3127 3129 3132 3134 3135 3136 3137 3138 3138 3140 3141 3142 3143 3143 3144 3145 3146 3147 3147 3147 3148 3148 3148 3148 3149 3149 3149 3149 3149 3150 3150 3150 3150 3150 3150 3150 3150 3150 3150 3150 3151 3151 3152 3153 3153 3153 3153 3153 3154 3154 3154 3154 3155 3155 3156 3156 3156 3156 3156 3156 3157 3157 3157 3156 3156 3155 3155 3154 3154 3154 3154 3154 3154 3153 3153 3152
3111 3111 3113 3116 3118 3118 3119 3120 3122 3124 3127 3131 3133 3133 3134 3136 3136 3137 3138 3139 3141 3142 3143 3144 3145 3146 3146 3147 3147 3147 3148 3148 3148 3148 3148 3148 3148 3148 3149 3149 3149 3149 3148 3149 3149 3149 3149 3149 3149 3149 3150 3150 3151 3152 3152 3152 3152 3153 3153 3154 3153 3154 3154 3154 3154 3154 3155 3155 3155 3155 3155 3155 3155 3154 3154 3153 3153 3153 3153 3153 3152 3152 3151 3151 3150
3109 3110 3111 3113 3116 3117 3117 3118 3121 3123 3126 3129 3131 3132 3132 3133 3134 3135 3136 3137 3139 3141 3142 3144 3145 3145 3146 3146 3146 3146 3147 3147 3147 3146 3146 3146 3147 3147 3147 3147 3147 3147 3147 3147 3147 3148 3148 3148 3148 3148 3148 3148 3149 3150 3151 3151 3151 3151 3152 3153 3153 3152 3152 3153 3153 3153 3153 3153 3153 3153 3153 3153 3153 3153 3152 3152 3152 3151 3152 3151 3151 3150 3150 3149 3148
3107 3107 3107 3110 3113 3114 3115 3117 3120 3122 3125 3127 3129 3130 3131 3131 3132 3133 3134 3136 3138 3139 3141 3143 3144 3144 3145 3145 3145 3145 3146 3146 3146 3145 3145 3145 3145 3145 3145 3146 3146 3145 3145 3145 3146 3146 3146 3146 3146 3147 3147 3147 3147 3148 3149 3149 3150 3150 3150 3150 3151 3151 3151 3151 3151 3152 3152 3152 3152 3152 3152 3152 3151 3151 3150 3150 3149 3149 3149 3148 3148 3148 3147 3146 3145
3106 3106 3107 3109 3111 3112 3114 3116 3119 3121 3124 3126 3127 3129 3130 3130 3131 3132 3132 3134 3137 3138 3140 3141 3142 3143 3143 3143 3143 3144 3144 3144 3144 3144 3144 3144 3144 3144 3144 3144 3144 3144 3144 3144 3143 3144 3144 3145 3145 3145 3145 3145 3146 3146 3147 3147 3148 3148 3148 3148 3149 3149 3149 3149 3149 3149 3150 3150 3150 3150 3150 3150 3149 3149 3148 3147 3147 3146 3145 3145 3144 3144 3144 3143 3142
3105 3106 3107 3109 3110 3112 3113 3115 3117 3119 3122 3124 3126 3127 3128 3128 3129 3131 3132 3134 3135 3137 3138 3139 3140 3141 3142 3142 3142 3142 3142 3142 3142 3142 3142 3142 3142 3142 3143 3143 3143 3143 3143 3142 3142 3142 3142 3142 3143 3143 3143 3143 3144 3144 3145 3145 3146 3146 3146 3147 3147 3147 3148 3148 3147 3147 3147 3147 3148 3148 3147 3147 3147 3146 3145 3145 3144 3143 3143 3142 3142 3141 3141 3140 3139
3105 3106 3107 3109 3110 3112 3113 3115 3116 3118 3121 3123 3124 3125 3126 3127 3128 3130 3131 3133 3134 3135 3136 3137 3138 3139 3139 3139 3139 3139 3139 3140 3140 3141 3141 3141 3141 3141 3141 3142 3141 3141 3141 3140 3140 3140 3140 3140 3141 3141 3141 3141 3142 3142 3143 3144 3144 3144 3145 3145 3145 3146 3146 3146 3146 3146 3145 3145 3145 3145 3145 3144 3144 3143 3143 3142 3142 3141 3140 3140 3139 3138 3138 3137 3136
3105 3106 3107 3108 3109 3111 3113 3114 3116 3118 3120 3121 3122 3123 3125 3126 3127 3128 3130 3131 3132 3133 3134 3135 3136 3136 3137 3137 3137 3137 3137 3137 3138 3138 3139 3139 3139 3139 3139 3139 3139 3139 3139 3139 3139 3139 3138 3138 3139 3139 3139 3140 3140 3141 3141 3142 3143 3143 3143 3143 3144 3144 3144 3144 3144 3144 3143 3143 3143 3143 3143 3142 3141 3141 3140 3140 3139 3138 3138 3137 3136 3136 3135 3134 3133
3105 3105 3106 3107 3108 3110 3112 3113 3115 3116 3118 3119 3120 3122 3123 3124 3125 3126 3127 3128 3130 3131 3132 3132 3133 3134 3134 3134 3135 3135 3135 3135 3136 3136 3136 3136 3136 3136 3136 3136 3137 3137 3137 3137 3137 3136 3136 3136 3137 3137 3137 3138 3139 3139 3140 3141 3141 3142 3142 3142 3142 3142 3142 3142 3141 3141 3141 3141 3141 3140 3140 3140 3139 3138 3138 3137 3136 3135 3135 3134 3133 3132 3131 3130 3129
3104 3104 3105 3106 3107 3109 3110 3112 3113 3114 3116 3117 3118 3119 3120 3121 3122 3123 3125 3126 3128 3129 3129 3130 3130 3131 3131 3132 3132 3132 3132 3133 3133 3133 3133 3133 3133 3132 3133 3133 3134 3134 3134 3134 3134 3134 3134 3134 3135 3135 3136 3137 3138 3138 3139 3140 3140 3140 3140 3140 3140 3140 3140 3139 3139 3139 3139 3138 3138 3138 3137 3137 3136 3135 3135 3134 3133 3132 3131 3131 3130 3129 3127 3126 3125
3102 3103 3104 3105 3106 3107 3109 3110 3112 3113 3115 3116 3117 3117 3118 3119 3120 3121 3122 3124 3125 3126 3126 3127 3127 3128 3128 3129 3129 3130 3130 3130 3130 3130 3130 3130 3130 3129 3129 3130 3131 3131 3131 3131 3132 3132 3133 3133 3134 3134 3134 3135 3136 3137 3138 3138 3139 3139 3139 3139 3138 3138 3138 3137 3137 3137 3136 3136 3135 3135 3134 3134 3133 3132 3131 3130 3130 3129 3128 3127 3126 3124 3123 3122 3120
3101 3102 3103 3104 3105 3106 3107 3108 3110 3112 3113 3114 3115 3115 3115 3116 3117 3119 3120 3121 3122 3123 3123 3124 3124 3125 3125 3126 3126 3127 3127 3127 3127 3128 3128 3128 3127 3127 3127 3127 3128 3128 3129 3129 3130 3131 3132 3132 3132 3133 3133 3134 3134 3135 3136 3136 3137 3137 3137 3136 3136 3136 3135 3135 3135 3134 3134 3133 3132 3132 3131 3131 3130 3129 3128 3127 3126 3125 3124 3123 3122 3120 3119 3118 3117
3100 3102 3103 3104 3104 3105 3106 3107 3108 3109 3110 3111 3111 3111 3111 3113 3115 3117 3118 3119 3119 3120 3121 3121 3122 3122 3123 3123 3124 3124 3124 3125 3125 3125 3125 3125 3124 3124 3125 3125 3125 3126 3126 3127 3128 3129 3130 3131 3131 3131 3131 3132 3132 3133 3133 3133 3134 3134 3134 3133 3133 3133 3132 3132 3132 3131 3130 3130 3129 3129 3128 3127 3126 3125 3124 3123 3123 3122 3121 3119 3118 3117 3116 3114 3113
3099 3101 3102 3103 3103 3104 3105 3105 3106 3107 3108 3109 3109 3109 3110 3111 3113 3114 3116 3117 3117 3118 3118 3119 3119 3120 3120 3120 3121 3121 3122 3122 3122 3122 3122 3122 3122 3121 3122 3122 3123 3123 3124 3125 3126 3127 3128 3128 3128 3129 3129 3129 3129 3130 3130 3130 3130 3131 3130 3130 3130 3130 3130 3129 3128 3128 3127 3126 3126 3125 3124 3123 3122 3122 3121 3120 3119 3118 3117 3116 3114 3113 3112 3110 3109
3100 3100 3101 3102 3102 3103 3103 3104 3104 3105 3106 3107 3108 3109 3109 3110 3111 3112 3113 3114 3115 3115 3116 3116 3117 3117 3118 3118 3118 3118 3119 3119 3119 3119 3119 3119 3119 3118 3119 3119 3120 3121 3121 3122 3123 3124 3125 3126 3126 3126 3126 3126 3126 3127 3127 3127 3127 3127 3127 3127 3127 3127 3126 3126 3126 3125 3124 3123 3122 3122 3121 3120 3119 3118 3118 3117 3116 3115 3113 3112 3110 3109 3107 3106 3105
3099 3100 3101 3102 3102 3102 3103 3103 3103 3104 3104 3105 3106 3106 3107 3108 3109 3109 3110 3111 3112 3113 3113 3114 3114 3114 3115 3115 3116 3116 3116 3116 3116 3116 3116 3116 3115 3115 3116 3117 3117 3118 3118 3119 3120 3121 3122 3123 3123 3123 3123 3123 3123 3123 3123 3123 3124 3124 3124 3124 3124 3124 3123 3123 3123 3122 3121 3120 3119 3118 3117 3116 3116 3115 3114 3113 3112 3110 3109 3107 3106 3105 3103 3102 3100
3097 3098 3099 3100 3101 3101 3102 3103 3103 3103 3103 3103 3104 3105 3105 3106 3106 3107 3107 3108 3109 3109 3110 3110 3111 3111 3112 3112 3113 3113 3113 3113 3113 3113 3112 3112 3112 3112 3113 3113 3114 3115 3115 3116 3117 3118 3119 3119 3120 3120 3120 3120 3120 3120 3120 3120 3120 3120 3120 3121 3121 3120 3120 3120 3119 3118 3117 3116 3115 3114 3113 3113 3112 3111 3110 3109 3107 3106 3104 3103 3101 3100 3098 3097 3095
3095 3095 3095 3096 3097 3098 3099 3100 3100 3101 3101 3101 3102 3102 3103 3104 3104 3104 3104 3104 3105 3105 3106 3107 3107 3108 3108 3109 3109 3110 3110 3110 3110 3109 3109 3109 3109 3109 3109 3110 3111 3111 3112 3112 3113 3114 3115 3115 3116 3116 3116 3116 3116 3116 3116 3116 3116 3116 3116 3116 3116 3116 3116 3116 3115 3115 3114 3112 3111 3110 3110 3109 3108 3107 3106 3105 3103 3102 3100 3098 3097 3095 3093 3091 3089
3094 3094 3094 3094 3094 3094 3094 3095 3096 3097 3097 3097 3098 3098 3099 3099 3100 3100 3100 3100 3100 3100 3101 3102 3103 3103 3104 3104 3105 3106 3106 3106 3106 3106 3106 3106 3106 3106 3106 3106 3107 3108 3108 3109 3109 3110 3110 3111 3111 3112 3112 3112 3112 3112 3112 3112 3113 3113 3113 3112 3112 3112 3112 3112 3111 3111 3110 3108 3107 3107 3106 3106 3105 3104 3103 3101 3099 3097 3096 3094 3092 3090 3088 3086 3084
3092 3092 3092 3092 3092 3091 3091 3092 3092 3093 3093 3093 3094 3094 3095 3095 3096 3096 3096 3097 3096 3096 3096 3097 3098 3098 3099 3100 3101 3101 3102 3102 3102 3102 3103 3103 3103 3103 3103 3103 3103 3104 3105 3105 3106 3106 3106 3107 3107 3108 3108 3108 3108 3108 3108 3109 3109 3109 3109 3109 3109 3108 3108 3108 3107 3107 3106 3105 3104 3103 3103 3102 3101 3100 3098 3097 3095 3093 3091 3089 3087 3084 3082 3080 3078
3089 3089 3089 3089 3089 3089 3089 3089 3090 3090 3090 3091 3091 3091 3091 3092 3092 3092 3092 3092 3092 3092 3092 3093 3093 3093 3094 3095 3096 3097 3098 3098 3098 3099 3099 3099 3099 3099 3099 3099 3100 3100 3101 3101 3102 3102 3102 3103 3103 3104 3104 3104 3104 3104 3104 3105 3105 3105 3105 3105 3104 3104 3104 3104 3103 3103 3102 3102 3101 3100 3099 3098 3096 3095 3093 3092 3090 3088 3086 3083 3081 3079 3077 3075 3073
3086 3086 3086 3086 3086 3086 3087 3087 3087 3087 3088 3088 3088 3088 3088 3088 3089 3088 3088 3087 3088 3088 3088 3088 3088 3088 3089 3090 3091 3092 3093 3094 3094 3094 3094 3095 3095 3096 3096 3096 3096 3097 3097 3097 3097 3098 3098 3098 3098 3099 3099 3100 3100 3100 3100 3100 3101 3101 3101 3101 3101 3101 3100 3100 3099 3099 3099 3098 3097 3096 3095 3093 3092 3090 3088 3086 3084 3082 3080 3078 3076 3075 3073 3071 3068
3082 3082 3082 3083 3083 3083 3083 3084 3084 3084 3084 3084 3084 3084 3084 3084 3084 3084 3083 3083 3084 3084 3083 3084 3083 3083 3084 3084 3085 3086 3088 3088 3087 3087 3087 3088 3090 3091 3091 3091 3092 3092 3092 3092 3092 3093 3093 3093 3093 3094 3094 3095 3096 3096 3096 3096 3097 3097 3097 3097 3097 3097 3097 3096 3096 3095 3094 3094 3093 3091 3090 3089 3087 3085 3083 3081 3079 3077 3075 3073 3072 3070 3068 3066 3063
3077 3077 3077 3078 3078 3078 3078 3079 3079 3079 3079 3079 3079 3079 3079 3079 3079 3079 3078 3078 3078 3079 3079 3079 3079 3079 3079 3080 3080 3081 3082 3083 3083 3082 3083 3083 3084 3085 3085 3085 3086 3086 3086 3086 3087 3088 3088 3088 3089 3089 3090 3090 3091 3092 3092 3092 3093 3093 3094 3094 3094 3094 3093 3093 3092 3091 3090 3089 3088 3087 3085 3084 3082 3080 3078 3076 3074 3072 3071 3069 3067 3066 3064 3061 3058
3072 3072 3072 3073 3073 3073 3073 3073 3073 3073 3073 3073 3073 3073 3073 3073 3073 3073 3073 3073 3073 3073 3074 3074 3074 3074 3075 3076 3076 3077 3077 3078 3079 3079 3080 3080 3079 3079 3079 3079 3080 3079 3078 3079 3082 3083 3083 3083 3084 3084 3085 3086 3086 3087 3087 3088 3089 3089 3089 3090 3090 3090 3090 3089 3088 3087 3086 3085 3084 3082 3081 3079 3078 3075 3073 3071 3070 3068 3067 3065 3063 3061 3059 3056 3054
3068 3068 3068 3068 3068 3068 3067 3067 3067 3067 3067 3067 3067 3067 3067 3067 3066 3066 3066 3067 3067 3067 3068 3069 3069 3069 3069 3071 3072 3072 3072 3073 3074 3074 3075 3075 3075 3075 3074 3074 3074 3072 3072 3074 3076 3077 3077 3078 3079 3080 3081 3081 3081 3082 3083 3084 3084 3085 3085 3086 3086 3086 3086 3085 3085 3084 3083 3081 3080 3079 3077 3075 3073 3071 3069 3067 3066 3064 3062 3060 3058 3056 3054 3052 3049
3063 3063 3064 3063 3063 3063 3063 3063 3062 3062 3062 3062 3061 3061 3061 3061 3060 3059 3059 3060 3060 3060 3061 3062 3062 3062 3063 3064 3065 3066 3067 3067 3068 3068 3069 3070 3070 3071 3071 3071 3070 3069 3069 3071 3072 3073 3074 3075 3075 3075 3075 3076 3077 3078 3079 3079 3080 3080 3081 3081 3081 3082 3082 3081 3081 3080 3079 3078 3077 3075 3074 3072 3070 3068 3066 3064 3062 3060 3058 3056 3054 3052 3050 3048 3046
3060 3060 3060 3060 3060 3059 3059 3058 3058 3058 3057 3056 3056 3056 3055 3055 3055 3054 3053 3053 3053 3054 3054 3055 3055 3056 3056 3057 3059 3060 3060 3061 3061 3062 3063 3064 3064 3065 3066 3066 3066 3066 3066 3066 3068 3069 3070 3070 3071 3071 3071 3072 3072 3073 3074 3075 3076 3076 3077 3077 3077 3078 3078 3077 3077 3076 3075 3074 3073 3072 3070 3068 3066 3064 3062 3060 3059 3057 3055 3053 3051 3049 3047 3045 3043
3057 3057 3057 3057 3056 3056 3055 3055 3054 3053 3053 3052 3051 3050 3050 3050 3049 3048 3047 3047 3047 3047 3047 3048 3048 3049 3050 3051 3052 3053 3055 3055 3056 3057 3057 3058 3058 3059 3060 3060 3061 3060 3060 3061 3062 3063 3065 3066 3066 3068 3069 3069 3070 3070 3071 3072 3073 3072 3073 3073 3073 3073 3073 3073 3072 3072 3071 3070 3069 3068 3066 3065 3063 3061 3059 3057 3056 3054 3052 3050 3048 3046 3044 3042 3039
3054 3054 3054 3053 3053 3052 3051 3051 3050 3049 3048 3046 3045 3044 3043 3043 3042 3042 3042 3041 3040 3040 3040 3041 3042 3043 3043 3044 3045 3047 3048 3049 3050 3051 3052 3052 3052 3052 3053 3054 3055 3055 3055 3056 3057 3058 3060 3061 3062 3064 3065 3066 3066 3067 3068 3069 3069 3068 3069 3069 3069 3069 3069 3069 3068 3068 3067 3066 3065 3064 3063 3062 3060 3058 3057 3055 3053 3051 3049 3047 3046 3043 3041 3039 3037
3052 3051 3051 3050 3050 3049 3048 3047 3046 3044 3043 3041 3040 3039 3037 3036 3035 3035 3035 3035 3035 3034 3034 3034 3035 3036 3037 3038 3039 3040 3042 3043 3044 3046 3047 3047 3047 3047 3047 3048 3050 3050 3051 3052 3053 3054 3055 3057 3058 3059 3060 3061 3062 3062 3063 3064 3064 3064 3065 3065 3065 3065 3065 3065 3065 3064 3063 3062 3061 3060 3059 3058 3057 3055 3053 3051 3050 3048 3046 3045 3043 3041 3039 3037 3035
3050 3049 3049 3048 3047 3046 3045 3044 3042 3041 3039 3038 3036 3035 3033 3032 3031 3030 3030 3029 3029 3029 3029 3028 3028 3029 3030 3031 3033 3034 3035 3037 3038 3039 3040 3041 3041 3042 3043 3043 3044 3045 3045 3047 3048 3049 3050 3052 3054 3054 3055 3056 3057 3058 3059 3060 3060 3060 3061 3061 3061 3061 3061 3061 3061 3060 3060 3059 3058 3056 3055 3054 3053 3052 3050 3048 3047 3045 3044 3043 3041 3039 3037 3035 3033
3048 3047 3046 3045 3045 3044 3042 3041 3040 3038 3037 3036 3034 3033 3032 3030 3029 3028 3027 3025 3024 3024 3024 3023 3023 3023 3023 3025 3026 3028 3030 3031 3032 3033 3034 3035 3036 3037 3038 3038 3039 3039 3040 3041 3042 3043 3045 3047 3048 3049 3051 3052 3053 3054 3056 3056 3056 3057 3057 3057 3057 3057 3057 3057 3056 3056 3056 3055 3053 3052 3052 3051 3049 3048 3047 3046 3045 3043 3042 3041 3039 3037 3035 3033 3030
3045 3045 3044 3043 3042 3041 3040 3039 3038 3037 3035 3034 3033 3031 3030 3029 3027 3026 3025 3023 3022 3021 3020 3019 3019 3018 3019 3019 3020 3022 3024 3025 3027 3028 3029 3030 3031 3032 3032 3033 3034 3034 3034 3035 3035 3037 3039 3041 3042 3044 3046 3048 3050 3051 3052 3052 3053 3053 3053 3053 3053 3053 3053 3053 3052 3052 3052 3051 3050 3049 3048 3047 3046 3045 3044 3043 3042 3041 3040 3039 3037 3035 3033 3031 3028
3044 3043 3042 3041 3040 3040 3039 3038 3036 3035 3034 3032 3031 3030 3028 3027 3026 3024 3022 3021 3019 3018 3017 3016 3016 3015 3015 3015 3016 3017 3018 3020 3022 3023 3024 3025 3026 3027 3028 3029 3029 3030 3030 3030 3030 3032 3034 3037 3039 3040 3043 3045 3046 3047 3048 3049 3050 3050 3050 3050 3050 3050 3050 3049 3049 3049 3048 3047 3047 3046 3045 3044 3043 3042 3041 3041 3040 3039 3038 3037 3035 3033 3031 3029 3026
3042 3042 3041 3040 3039 3038 3037 3036 3035 3034 3032 3031 3030 3028 3027 3025 3023 3021 3020 3018 3016 3014 3014 3013 3013 3012 3012 3012 3013 3013 3014 3016 3017 3018 3019 3020 3021 3022 3023 3024 3025 3025 3026 3027 3028 3030 3032 3034 3036 3037 3039 3041 3042 3043 3045 3046 3046 3046 3047 3047 3047 3047 3046 3046 3046 3046 3045 3044 3044 3043 3042 3041 3041 3040 3039 3039 3038 3037 3036 3035 3033 3031 3029 3027 3025
3041 3040 3039 3039 3038 3037 3036 3035 3034 3032 3031 3029 3028 3026 3024 3022 3020 3018 3016 3014 3012 3011 3010 3010 3009 3009 3009 3009 3010 3011 3011 3012 3013 3013 3014 3015 3016 3018 3019 3021 3021 3021 3022 3024 3026 3028 3030 3031 3033 3034 3036 3037 3038 3040 3041 3042 3043 3044 3044 3044 3044 3043 3043 3043 3042 3042 3042 3042 3041 3041 3040 3039 3038 3037 3037 3037 3036 3035 3034 3033 3031 3030 3028 3026 3024
3040 3040 3039 3038 3037 3036 3035 3034 3033 3031 3029 3027 3026 3024 3022 3019 3017 3015 3012 3011 3009 3008 3006 3006 3006 3006 3006 3006 3007 3007 3008 3009 3009 3010 3011 3012 3012 3014 3015 3017 3018 3018 3020 3022 3024 3026 3028 3030 3031 3033 3033 3035 3036 3038 3039 3039 3040 3040 3041 3041 3041 3040 3040 3040 3039 3039 3039 3039 3038 3038 3037 3037 3036 3035 3035 3035 3034 3034 3032 3031 3030 3028 3026 3025 3023
3040 3039 3038 3037 3036 3035 3034 3033 3031 3030 3028 3026 3024 3022 3020 3017 3014 3012 3010 3008 3007 3006 3004 3003 3002 3002 3002 3003 3003 3004 3005 3006 3007 3008 3009 3010 3011 3012 3013 3015 3016 3017 3019 3021 3022 3024 3026 3028 3029 3030 3031 3032 3034 3035 3037 3037 3037 3038 3038 3038 3038 3037 3037 3037 3037 3037 3037 3036 3036 3035 3035 3034 3033 3033 3033 3033 3033 3032 3031 3029 3028 3026 3025 3023 3021
3039 3038 3037 3037 3035 3034 3033 3032 3030 3028 3027 3025 3023 3021 3018 3015 3013 3010 3008 3007 3006 3004 3002 3001 3000 2999 2999 3000 3001 3001 3003 3004 3005 3006 3007 3009 3010 3011 3013 3014 3015 3016 3018 3019 3021 3022 3024 3025 3026 3027 3028 3030 3031 3032 3034 3035 3035 3035 3035 3035 3035 3034 3034 3034 3034 3035 3034 3034 3033 3033 3033 3032 3031 3031 3031 3031 3031 3030 3029 3028 3026 3025 3024 3022 3020
3038 3037 3036 3036 3035 3033 3032 3031 3029 3028 3026 3024 3022 3020 3017 3015 3013 3010 3008 3006 3005 3003 3001 3000 2999 2998 2998 2998 2999 3000 3001 3002 3003 3004 3006 3007 3008 3010 3011 3013 3014 3015 3017 3018 3020 3021 3022 3023 3024 3025 3026 3027 3028 3030 3031 3031 3032 3032 3032 3032 3032 3032 3032 3032 3032 3032 3032 3031 3031 3031 3030 3030 3029 3029 3029 3029 3029 3028 3027 3026 3025 3024 3022 3021 3019
3037 3036 3035 3035 3034 3033 3032 3031 3029 3027 3026 3024 3022 3019 3017 3015 3013 3011 3009 3007 3005 3003 3001 3000 2999 2997 2997 2997 2998 2999 3000 3001 3002 3002 3004 3005 3007 3008 3009 3011 3012 3014 3015 3017 3018 3019 3020 3021 3022 3023 3024 3025 3026 3027 3028 3028 3028 3028 3029 3029 3029 3029 3029 3029 3030 3030 3029 3029 3029 3029 3028 3028 3028 3028 3028 3027 3027 3026 3025 3024 3024 3023 3021 3020 3018
3036 3036 3035 3034 3033 3033 3032 3031 3029 3027 3025 3024 3022 3019 3017 3016 3015 3013 3010 3008 3006 3005 3003 3001 3000 2999 2998 2997 2997 2998 2999 3000 3001 3001 3003 3004 3005 3006 3007 3009 3011 3012 3014 3015 3016 3017 3018 3019 3020 3021 3022 3023 3023 3024 3024 3024 3025 3025 3026 3026 3027 3027 3027 3027 3027 3027 3027 3027 3027 3027 3026 3026 3026 3026 3026 3026 3025 3025 3024 3023 3022 3021 3020 3019 3018
3036 3035 3034 3034 3033 3032 3032 3031 3029 3027 3025 3024 3022 3020 3018 3016 3015 3014 3012 3010 3008 3006 3005 3003 3002 3001 3000 2999 2998 2998 2999 3000 3000 3001 3002 3003 3004 3006 3007 3008 3009 3011 3012 3014 3015 3016 3017 3018 3019 3019 3019 3020 3020 3021 3021 3022 3023 3023 3024 3024 3025 3025 3025 3025 3025 3025 3025 3025 3025 3025 3024 3024 3024 3024 3024 3024 3023 3023 3022 3021 3021 3020 3019 3018 3017
3035 3034 3033 3033 3032 3032 3032 3031 3029 3027 3026 3024 3022 3020 3018 3017 3016 3014 3013 3011 3010 3008 3007 3005 3004 3003 3002 3001 3000 3000 3000 3001 3001 3001 3002 3003 3004 3005 3007 3008 3009 3010 3012 3013 3014 3015 3016 3017 3017 3018 3018 3018 3019 3019 3020 3021 3021 3022 3022 3023 3023 3023 3023 3023 3024 3024 3024 3023 3023 3023 3023 3023 3023 3023 3023 3022 3022 3021 3020 3020 3019 3019 3018 3017 3016
3034 3033 3033 3032 3032 3032 3031 3031 3029 3028 3026 3024 3023 3021 3019 3018 3016 3015 3014 3012 3011 3010 3008 3007 3006 3005 3004 3003 3002 3002 3002 3003 3003 3003 3004 3004 3005 3006 3007 3008 3009 3010 3012 3013 3014 3014 3015 3016 3017 3017 3017 3018 3018 3019 3019 3019 3020 3020 3021 3021 3021 3022 3022 3022 3022 3022 3022 3022 3022 3021 3021 3021 3021 3021 3021 3020 3020 3019 3019 3018 3018 3017 3016 3015 3015
3033 3032 3032 3032 3032 3031 3031 3030 3029 3028 3027 3025 3024 3022 3021 3019 3018 3016 3015 3014 3012 3011 3010 3008 3007 3006 3005 3005 3004 3004 3004 3004 3005 3005 3006 3006 3007 3007 3008 3009 3010 3011 3012 3012 3013 3014 3014 3015 3016 3016 3016 3017 3017 3017 3018 3018 3018 3019 3019 3020 3020 3020 3020 3021 3021 3021 3020 3020 3020 3020 3020 3020 3020 3019 3019 3019 3018 3018 3017 3016 3016 3015 3015 3014 3013
3033 3032 3032 3032 3031 3031 3031 3030 3030 3029 3028 3026 3025 3024 3022 3021 3019 3018 3016 3015 3014 3012 3011 3010 3009 3007 3007 3006 3006 3006 3005 3006 3006 3006 3006 3007 3007 3008 3009 3009 3010 3011 3011 3012 3012 3013 3013 3014 3014 3015 3015 3016 3016 3016 3017 3017 3017 3018 3018 3019 3019 3019 3019 3019 3019 3019 3019 3019 3019 3019 3018 3018 3018 3017 3017 3017 3016 3016 3015 3015 3014 3014 3013 3013 3012